Regional Weather Roundup
Issued by NWS Sioux Falls, SD

Home | Current Version | Previous Version | Text Only | Print | Product List | Glossary Off
Versions: 1 2 3 4 5 6 7 8 9 10 11 12 13 14 15 16 17 18 19 20 21 22 23 24 25 26 27 28 29 30 31 32 33 34 35 36 37 38 39 40 41 42 43 44 45 46 47 48 49 50

000
ASUS43 KFSD 221510
RWRFSD

WEATHER ROUNDUP FOR SE SOUTH DAKOTA/SW MINNESOTA/NW IOWA
NATIONAL WEATHER SERVICE SIOUX FALLS SD
1000 AM CDT FRI MAY 22 2015

NOTE: "FAIR" INDICATES FEW OR NO CLOUDS BELOW 12,000 FEET WITH NO
SIGNIFICANT WEATHER AND OR OBSTRUCTIONS TO VISIBILITY.


SDZ038>040-050-052>070-221600-
SOUTHEAST SOUTH DAKOTA

CITY           SKY/WX    TMP DP  RH WIND       PRES   REMARKS
BROOKINGS      SUNNY     63  37  39 SE7       30.22R
CHAMBERLAIN    MOSUNNY   62  42  49 SE3       30.18S
HURON          SUNNY     65  39  38 VRB3      30.19R
MADISON        FAIR      66  37  34 CALM      30.20S
MITCHELL       SUNNY     65  43  44 SE5       30.21R
SIOUX FALLS    PTSUNNY   67  44  43 SE5       30.21R
WINNER         FAIR      63  40  42 SE8       30.18S
YANKTON        SUNNY     61  39  44 CALM      30.21S
$$

MNZ071-072-080-081-089-090-097-098-221600-
SOUTHWEST MINNESOTA

CITY           SKY/WX    TMP DP  RH WIND       PRES   REMARKS
FAIRMONT       SUNNY     64  34  32 E3        30.22R
JACKSON        SUNNY     66  30  26 NE5       30.22S
LUVERNE        SUNNY     64  36  34 SE3       30.22R
MARSHALL       SUNNY     64  36  34 E3        30.21S
MONTEVIDEO     SUNNY     64  37  36 S8        30.22S
REDWOOD FALLS  SUNNY     65  35  33 S7        30.22R
TRACY          SUNNY     65  38  36 CALM      30.22S
WORTHINGTON    SUNNY     64  34  32 CALM      30.21S
$$

IAZ001>003-012>014-020>022-031-032-NEZ013-014-SDZ071-221600-
NORTHWEST IOWA

CITY           SKY/WX    TMP DP  RH WIND       PRES   REMARKS
CHEROKEE       SUNNY     62  47  57 CALM      30.23R
DENISON        MOSUNNY   66  45  45 CALM      30.21R
ESTHERVILLE    SUNNY     66  39  37 N3        30.21S
LE MARS        SUNNY     64  43  45 CALM      30.22S
ORANGE CITY    SUNNY     63  39  42 S5        30.22R
SHELDON        SUNNY     66  34  30 S6        30.21R
SIOUX CITY     MOSUNNY   66  42  41 CALM      30.23R
SPENCER        SUNNY     66  39  37 CALM      30.22R
STORM LAKE     SUNNY     66  34  30 VRB5      30.23S
$$

ABBREVIATIONS USED IN REMARKS
   TC - TEMPERATURE IN CELSIUS
  WCI - WIND CHILL INDEX
   HX - HEAT INDEX
  VSB - VISIBILITY




USA.gov is the U.S. government's official web portal to all federal, state and local government web resources and services.